Main page


Airports :

Pembrey, Wales

Pembrey Airport

latitude: 51-43N, longitude: 004-22W, elevation: 3 m

Current weather observation

The report was made 35 minutes ago, at 21:50 UTC
Wind 9 kt from the East
Temperature 7°C
Humidity 87%
Pressure 993 hPa
Visibility 10 km or more

METAR: EGOP 232150Z AUTO 09009KT 9999 // BKN050/// 07/05 Q0993

Time: 22:25 (22:25 UTC)

TAF: missing

Weather observations and forecasts of more than 4000 airports (METAR and TAF reports).

The available stations are represented by yellow and red dots on the map.

Hover mouse over dot to see the name of the station.

Then click to see weather observations and forecasts.

To change the map : click on the green buttons with a black cross to zoom in, on the green button with a dash to zoom out, or on the green arrows for adjacent maps.